London, United Kingdom

7:58 PM GMT on November 19, 2017 (GMT +0000)
Heathrow

Weather History for EGLL - November, 2017

Change the Weather History Date:

Wednesday, November 15, 2017

  Actual Average Record
Temperature  
Mean Temperature 50 °F -  
Max Temperature 53 °F 48 °F 61 °F (2015)
Min Temperature 48 °F 38 °F 30 °F (2000)
Degree Days  
Heating Degree Days 14    
Moisture  
Dew Point 49 °F    
Average Humidity 94    
Maximum Humidity 100    
Minimum Humidity 88    
Precipitation  
Precipitation 0.00 in - - ()
Sea Level Pressure  
Sea Level Pressure 30.24 in    
Wind  
Wind Speed 4 mph ()    
Max Wind Speed 8 mph    
Max Gust Speed -    
Visibility 4.0 miles    
Events Rain    
Averages and records for this station are not official NWS values.
T = Trace of Precipitation, MM = Missing Value Source: Averaged Metar Reports

Daily Weather History Graph

Daily Weather History Graph

Search for Another Location

Airport or City:

Trip Planner

Search our weather history database for the weather conditions in past years. The results will help you decide how hot, cold, wet, or windy it might be!

Date:

Astronomy

Nov. 15, 2017 Rise Set
Actual Time 7:19 AM GMT 4:12 PM GMT
Civil Twilight 6:42 AM GMT 4:49 PM GMT
Nautical Twilight 6:02 AM GMT 5:29 PM GMT
Astronomical Twilight 5:22 AM GMT 6:09 PM GMT
Moon 3:36 AM GMT (11/15) 3:25 PM GMT (11/15)
Length of Visible Light 10h 06m
Length of Day
8h 52m
Waning Crescent, 9% of the Moon is Illuminated
Nov 15
Waning Crescent
Nov 18
New
Nov 26
First Quarter
Dec 3
Full
Dec 10
Last Quarter

Hourly Weather History & Observations

Time (GMT) Temp. Dew Point Humidity Pressure Visibility Wind Dir Wind Speed Gust Speed Precip Events Conditions
12:00 AM 50 °F 48 °F 89% 30.24 in 12 mi WSW 6.9 mph - -   Scattered Clouds
12:20 AM 50.0 °F 48.2 °F 94% 30.24 in 6.2 mi WSW 6.9 mph - N/A   Overcast
12:50 AM 50.0 °F 48.2 °F 94% 30.24 in 5.0 mi SW 6.9 mph - N/A Rain Light Rain
1:20 AM 50.0 °F 48.2 °F 94% 30.24 in 6.2 mi SW 4.6 mph - N/A   Overcast
1:50 AM 50.0 °F 48.2 °F 94% 30.24 in 6.2 mi SW 3.5 mph - N/A   Overcast
2:00 AM 50 °F 49 °F 95% 30.24 in 10 mi SW 4.6 mph - -   Overcast
2:20 AM 50.0 °F 48.2 °F 94% 30.24 in 6.2 mi Variable 2.3 mph - N/A   Overcast
2:50 AM 50.0 °F 48.2 °F 94% 30.21 in 6.2 mi SSW 4.6 mph - N/A   Overcast
3:00 AM 50 °F 49 °F 94% 30.23 in 10 mi SSW 4.6 mph - -   Overcast
3:20 AM 50.0 °F 48.2 °F 94% 30.21 in 6.2 mi SSW 5.8 mph - N/A   Overcast
3:50 AM 50.0 °F 48.2 °F 94% 30.21 in 6.2 mi SSW 5.8 mph - N/A   Overcast
4:00 AM 50 °F 49 °F 93% 30.24 in 9 mi SSW 5.8 mph - -   Overcast
4:20 AM 50.0 °F 48.2 °F 94% 30.24 in 6.2 mi SW 3.5 mph - N/A Rain Light Rain
4:50 AM 50.0 °F 48.2 °F 94% 30.24 in 4.3 mi SW 4.6 mph - N/A Rain Light Rain
5:20 AM 50.0 °F 48.2 °F 94% 30.24 in 1.6 mi SSW 4.6 mph - N/A   Drizzle
5:50 AM 50.0 °F 48.2 °F 94% 30.24 in 3.7 mi SW 4.6 mph - N/A   Mostly Cloudy
6:00 AM 50 °F 49 °F 96% 30.25 in 4 mi SW 3.5 mph - - Rain Rain
6:20 AM 50.0 °F 48.2 °F 94% 30.24 in 3.7 mi Variable 3.5 mph - N/A   Overcast
6:50 AM 50.0 °F 48.2 °F 94% 30.24 in 3.7 mi SSW 4.6 mph - N/A   Overcast
7:20 AM 50.0 °F 48.2 °F 94% 30.24 in 2.5 mi Variable 3.5 mph - N/A   Overcast
7:50 AM 50.0 °F 48.2 °F 94% 30.24 in 4.3 mi West 4.6 mph - N/A   Overcast
8:00 AM 50 °F 49 °F 97% 30.26 in 4 mi West 4.6 mph - -   Mist
8:20 AM 50.0 °F 50.0 °F 100% 30.27 in 3.7 mi West 4.6 mph - N/A   Overcast
8:50 AM 50.0 °F 50.0 °F 100% 30.27 in 3.1 mi West 4.6 mph - N/A   Overcast
9:00 AM 50 °F 50 °F 98% 30.27 in 4 mi West 4.6 mph - -   Mist
9:20 AM 50.0 °F 50.0 °F 100% 30.27 in 2.5 mi West 4.6 mph - N/A   Overcast
9:50 AM 50.0 °F 50.0 °F 100% 30.27 in 1.5 mi Variable 3.5 mph - N/A   Overcast
10:00 AM 50 °F 49 °F 97% 30.28 in 1 mi NW 4.6 mph - -   Mist
10:20 AM 50.0 °F 50.0 °F 100% 30.27 in 1.6 mi Variable 2.3 mph - N/A   Overcast
10:50 AM 51.8 °F 50.0 °F 94% 30.27 in 1.7 mi Variable 2.3 mph - N/A   Haze
11:00 AM 50 °F 50 °F 98% 30.27 in 2 mi West 2.3 mph - -   Mist
11:20 AM 50.0 °F 50.0 °F 100% 30.27 in 1.5 mi Variable 2.3 mph - N/A   Haze
11:50 AM 51.8 °F 50.0 °F 94% 30.27 in 1.7 mi Variable 3.5 mph - N/A   Haze
12:00 PM 51 °F 49 °F 92% 30.27 in 2 mi NW 3.5 mph - -   Mist
12:20 PM 51.8 °F 50.0 °F 94% 30.27 in - Variable 3.5 mph - N/A   Haze
12:50 PM 50.0 °F 48.2 °F 94% 30.27 in 1.9 mi West 5.8 mph - N/A   Haze
1:00 PM 51 °F 50 °F 94% 30.27 in 2 mi West 4.6 mph - -   Mist
1:20 PM 50.0 °F 50.0 °F 100% 30.27 in 2.5 mi West 4.6 mph - N/A   Mostly Cloudy
1:50 PM 51.8 °F 50.0 °F 94% 30.24 in 4.3 mi Variable 3.5 mph - N/A   Mostly Cloudy
2:00 PM 52 °F 50 °F 92% 30.25 in 5 mi West 1.2 mph - -   Mist
2:20 PM 53.6 °F 50.0 °F 88% 30.24 in 5.0 mi SSW 4.6 mph - N/A   Mostly Cloudy
2:50 PM 51.8 °F 50.0 °F 94% 30.24 in 4.3 mi Variable 3.5 mph - N/A   Mostly Cloudy
3:00 PM 53 °F 51 °F 88% 30.25 in 6 mi SSE 2.3 mph - -   Mostly Cloudy
3:20 PM 53.6 °F 50.0 °F 88% 30.24 in 5.0 mi SW 6.9 mph - N/A   Overcast
3:50 PM 51.8 °F 50.0 °F 94% 30.24 in 5.0 mi SSW 5.8 mph - N/A   Overcast
4:00 PM 52 °F 49 °F 88% 30.25 in 6 mi South 5.8 mph - -   Light Haze
4:20 PM 50.0 °F 48.2 °F 94% 30.24 in 3.7 mi SSW 6.9 mph - N/A   Overcast
4:50 PM 50.0 °F 48.2 °F 94% 30.24 in 2.5 mi SSW 5.8 mph - N/A   Mostly Cloudy
5:00 PM 51 °F 49 °F 92% 30.25 in 3 mi South 5.8 mph - -   Mist
5:20 PM 50.0 °F 48.2 °F 94% 30.24 in 2.2 mi WSW 8.1 mph - N/A   Mostly Cloudy
5:50 PM 50.0 °F 48.2 °F 94% 30.24 in 2.2 mi SW 5.8 mph - N/A   Mostly Cloudy
6:00 PM 50 °F 49 °F 97% 30.25 in 3 mi SSW 3.5 mph - -   Mist
6:20 PM 50.0 °F 48.2 °F 94% 30.24 in 1.9 mi SSW 5.8 mph - N/A   Mostly Cloudy
6:50 PM 50.0 °F 48.2 °F 94% 30.24 in - SW 4.6 mph - N/A   Overcast
7:00 PM 51 °F 50 °F 94% 30.25 in 2 mi SW 3.5 mph - -   Mist
7:20 PM 50.0 °F 50.0 °F 100% 30.24 in - WSW 5.8 mph - N/A   Overcast
7:50 PM 50.0 °F 48.2 °F 94% 30.24 in - SSW 5.8 mph - N/A   Mostly Cloudy
8:00 PM 51 °F 50 °F 93% 30.24 in 3 mi SSW 4.6 mph - -   Mist
8:20 PM 50.0 °F 48.2 °F 94% 30.21 in - SW 4.6 mph - N/A   Scattered Clouds
8:50 PM 50.0 °F 48.2 °F 94% 30.21 in - SSW 4.6 mph - N/A   Scattered Clouds
9:00 PM 51 °F 50 °F 93% 30.23 in 3 mi South 4.6 mph - -   Mist
9:20 PM 50.0 °F 48.2 °F 94% 30.21 in 2.8 mi WSW 5.8 mph - N/A   Scattered Clouds
9:50 PM 50.0 °F 48.2 °F 94% 30.21 in - WSW 4.6 mph - N/A   Scattered Clouds
10:00 PM 50 °F 49 °F 94% 30.23 in 3 mi WSW 3.5 mph - -   Mist
10:20 PM 48.2 °F 48.2 °F 100% 30.21 in 1.6 mi Variable 3.5 mph - N/A   Scattered Clouds
10:50 PM 50.0 °F 48.2 °F 94% 30.21 in - WSW 5.8 mph - N/A   Mostly Cloudy
11:00 PM 51 °F 49 °F 92% 30.22 in 4 mi SW 4.6 mph - -   Mist
11:20 PM 50.0 °F 48.2 °F 94% 30.21 in 2.8 mi SW 4.6 mph - N/A   Haze
11:50 PM 50.0 °F 48.2 °F 94% 30.21 in 2.2 mi SW 2.3 mph - N/A   Haze